| time (UTC) | temp F | wind direction | speed MPH | gust MPH | rain 1hr in | rain 24hr in | rain mn in | humidity % | barometer mb |
| 20260504035336 | 59 | 311 | 1.0 | 3.0 | 0.00 | 0.00 | 0.00 | 67 | 1004.8 |
| 20260504034832 | 60 | 25 | 0.0 | 2.0 | 0.00 | 0.00 | 0.00 | 65 | 1004.8 |
| 20260504034330 | 60 | 60 | 0.0 | 2.0 | 0.00 | 0.00 | 0.00 | 65 | 1005.0 |
| 20260504033826 | 60 | 261 | 0.0 | 2.0 | 0.00 | 0.00 | 0.00 | 64 | 1005.4 |
| 20260504033325 | 60 | 15 | 0.0 | 0.0 | 0.00 | 0.00 | 0.00 | 64 | 1005.1 |
| 20260504032821 | 60 | 331 | 0.0 | 3.0 | 0.00 | 0.00 | 0.00 | 65 | 1005.2 |
| 20260504032318 | 59 | 307 | 1.0 | 3.0 | 0.00 | 0.00 | 0.00 | 65 | 1005.2 |
| 20260504031815 | 60 | 299 | 1.0 | 3.0 | 0.00 | 0.00 | 0.00 | 65 | 1005.1 |
| 20260504031312 | 60 | 323 | 1.0 | 2.0 | 0.00 | 0.00 | 0.00 | 65 | 1005.5 |
| 20260504030808 | 60 | 287 | 1.0 | 3.0 | 0.00 | 0.00 | 0.00 | 64 | 1005.4 |
| 20260504030306 | 60 | 327 | 0.0 | 2.0 | 0.00 | 0.00 | 0.00 | 63 | 1005.4 |
| 20260504025801 | 60 | 354 | 0.0 | 2.0 | 0.00 | 0.00 | 0.00 | 64 | 1005.2 |
| 20260504025259 | 60 | 292 | 0.0 | 3.0 | 0.00 | 0.00 | 0.00 | 64 | 1005.5 |
| 20260504024755 | 60 | 6 | 1.0 | 3.0 | 0.00 | 0.00 | 0.00 | 63 | 1005.1 |
| 20260504024252 | 60 | 19 | 0.0 | 0.0 | 0.00 | 0.00 | 0.00 | 64 | 1005.5 |
| 20260504023749 | 60 | 272 | 0.0 | 3.0 | 0.00 | 0.00 | 0.00 | 64 | 1005.4 |
| 20260504023245 | 60 | 0 | 1.0 | 2.0 | 0.00 | 0.00 | 0.00 | 63 | 1005.4 |
| 20260504022741 | 60 | 290 | 0.0 | 2.0 | 0.00 | 0.00 | 0.00 | 62 | 1005.2 |
| 20260504022238 | 60 | 269 | 0.0 | 2.0 | 0.00 | 0.00 | 0.00 | 64 | 1005.1 |
| 20260504021735 | 60 | 319 | 0.0 | 0.0 | 0.00 | 0.00 | 0.00 | 64 | 1005.1 |
| 20260504021232 | 60 | 312 | 0.0 | 0.0 | 0.00 | 0.00 | 0.00 | 64 | 1005.2 |
| 20260504020729 | 60 | 299 | 0.0 | 0.0 | 0.00 | 0.00 | 0.00 | 64 | 1004.9 |
| 20260504020225 | 59 | 305 | 0.0 | 0.0 | 0.00 | 0.00 | 0.00 | 64 | 1005.0 |
| 20260504015722 | 59 | 15 | 0.0 | 0.0 | 0.00 | 0.00 | 0.00 | 64 | 1005.1 |
| 20260504015218 | 59 | 11 | 0.0 | 0.0 | 0.00 | 0.00 | 0.00 | 63 | 1005.0 |
| 20260504014714 | 59 | 358 | 0.0 | 0.0 | 0.00 | 0.00 | 0.00 | 65 | 1004.9 |
| 20260504014211 | 59 | 10 | 0.0 | 0.0 | 0.00 | 0.00 | 0.00 | 64 | 1004.9 |
| 20260504013709 | 60 | 323 | 0.0 | 0.0 | 0.00 | 0.00 | 0.00 | 63 | 1004.8 |
| 20260504013206 | 60 | 333 | 0.0 | 0.0 | 0.00 | 0.00 | 0.00 | 63 | 1004.9 |
| 20260504012702 | 60 | 346 | 0.0 | 2.0 | 0.00 | 0.00 | 0.00 | 61 | 1004.7 |
| 20260504012200 | 61 | 336 | 0.0 | 0.0 | 0.00 | 0.00 | 0.00 | 62 | 1004.5 |
| 20260504011657 | 62 | 338 | 0.0 | 0.0 | 0.00 | 0.00 | 0.00 | 60 | 1004.5 |
| 20260504011153 | 63 | 323 | 0.0 | 0.0 | 0.00 | 0.00 | 0.00 | 57 | 1004.6 |
| 20260504010649 | 64 | 350 | 0.0 | 2.0 | 0.00 | 0.00 | 0.00 | 56 | 1004.5 |
| 20260504010145 | 64 | 341 | 0.0 | 0.0 | 0.00 | 0.00 | 0.00 | 54 | 1004.6 |
| 20260504005642 | 64 | 323 | 0.0 | 2.0 | 0.00 | 0.00 | 0.00 | 54 | 1004.4 |
| 20260504005139 | 66 | 306 | 0.0 | 2.0 | 0.00 | 0.00 | 0.00 | 54 | 1004.4 |
| 20260504004637 | 66 | 326 | 0.0 | 2.0 | 0.00 | 0.00 | 0.00 | 51 | 1004.6 |
| 20260504004134 | 67 | 119 | 1.0 | 3.0 | 0.00 | 0.00 | 0.00 | 50 | 1004.5 |
| 20260504003630 | 67 | 296 | 0.0 | 2.0 | 0.00 | 0.00 | 0.00 | 48 | 1004.5 |
| 20260504003127 | 68 | 338 | 2.0 | 3.0 | 0.00 | 0.00 | 0.00 | 48 | 1004.5 |
| 20260504002624 | 68 | 331 | 2.0 | 5.0 | 0.00 | 0.00 | 0.00 | 48 | 1004.3 |
| 20260504002121 | 68 | 353 | 0.0 | 5.0 | 0.00 | 0.00 | 0.00 | 47 | 1004.5 |
| 20260504001619 | 68 | 355 | 4.0 | 10.0 | 0.00 | 0.00 | 0.00 | 47 | 1004.5 |
| 20260504001114 | 68 | 22 | 1.0 | 3.0 | 0.00 | 0.00 | 0.00 | 47 | 1004.5 |
| 20260504000612 | 69 | 254 | 2.0 | 7.0 | 0.00 | 0.00 | 0.00 | 46 | 1004.5 |
| 20260504000110 | 69 | 233 | 5.0 | 5.0 | 0.00 | 0.00 | 0.00 | 46 | 1004.5 |
| 20260503235608 | 69 | 193 | 3.0 | 7.0 | 0.00 | 0.00 | 0.00 | 45 | 1004.5 |
| 20260503235104 | 69 | 339 | 4.0 | 8.0 | 0.00 | 0.00 | 0.00 | 45 | 1004.4 |
| 20260503234602 | 69 | 354 | 7.0 | 8.0 | 0.00 | 0.00 | 0.00 | 45 | 1004.5 |
| 20260503234100 | 69 | 337 | 2.0 | 10.0 | 0.00 | 0.00 | 0.00 | 44 | 1004.3 |
| 20260503233556 | 70 | 116 | 2.0 | 8.0 | 0.00 | 0.00 | 0.00 | 44 | 1004.5 |
| 20260503233052 | 70 | 23 | 5.0 | 8.0 | 0.00 | 0.00 | 0.00 | 44 | 1004.5 |
| 20260503232549 | 71 | 180 | 3.0 | 12.0 | 0.00 | 0.00 | 0.00 | 44 | 1004.5 |
| 20260503232047 | 71 | 212 | 5.0 | 8.0 | 0.00 | 0.00 | 0.00 | 43 | 1004.6 |
| 20260503231544 | 71 | 193 | 5.0 | 12.0 | 0.00 | 0.00 | 0.00 | 43 | 1004.6 |
| 20260503231041 | 71 | 180 | 3.0 | 7.0 | 0.00 | 0.00 | 0.00 | 42 | 1004.7 |
| 20260503230537 | 71 | 310 | 2.0 | 7.0 | 0.00 | 0.00 | 0.00 | 43 | 1004.6 |
| 20260503230035 | 70 | 331 | 3.0 | 5.0 | 0.00 | 0.00 | 0.00 | 42 | 1004.7 |
| 20260503225532 | 70 | 194 | 5.0 | 8.0 | 0.00 | 0.00 | 0.00 | 43 | 1004.7 |
| 20260503225027 | 70 | 12 | 2.0 | 8.0 | 0.00 | 0.00 | 0.00 | 43 | 1004.8 |
| 20260503224525 | 71 | 293 | 4.0 | 12.0 | 0.00 | 0.00 | 0.00 | 42 | 1004.9 |
| 20260503224022 | 70 | 337 | 3.0 | 10.0 | 0.00 | 0.00 | 0.00 | 44 | 1005.0 |
| 20260503223520 | 70 | 244 | 3.0 | 8.0 | 0.00 | 0.00 | 0.00 | 44 | 1005.0 |
| 20260503223015 | 70 | 83 | 3.0 | 8.0 | 0.00 | 0.00 | 0.00 | 44 | 1005.0 |
| 20260503222514 | 70 | 295 | 1.0 | 7.0 | 0.00 | 0.00 | 0.00 | 43 | 1005.0 |
| 20260503222012 | 70 | 231 | 7.0 | 12.0 | 0.00 | 0.00 | 0.00 | 42 | 1005.2 |
| 20260503221510 | 70 | 22 | 6.0 | 17.0 | 0.00 | 0.00 | 0.00 | 43 | 1005.4 |
| 20260503221007 | 69 | 304 | 4.0 | 12.0 | 0.00 | 0.00 | 0.00 | 42 | 1005.4 |
| 20260503220503 | 70 | 270 | 7.0 | 12.0 | 0.00 | 0.00 | 0.00 | 42 | 1005.2 |
| 20260503215959 | 70 | 279 | 1.0 | 7.0 | 0.00 | 0.00 | 0.00 | 42 | 1005.4 |
| 20260503215456 | 70 | 255 | 4.0 | 10.0 | 0.00 | 0.00 | 0.00 | 43 | 1005.5 |
| 20260503214954 | 69 | 194 | 3.0 | 7.0 | 0.00 | 0.00 | 0.00 | 43 | 1005.4 |
| 20260503214452 | 68 | 5 | 5.0 | 12.0 | 0.00 | 0.00 | 0.00 | 43 | 1005.7 |
| 20260503213949 | 68 | 328 | 6.0 | 13.0 | 0.00 | 0.00 | 0.00 | 44 | 1005.9 |
| 20260503213447 | 68 | 260 | 5.0 | 12.0 | 0.00 | 0.00 | 0.00 | 43 | 1005.8 |
| 20260503212943 | 68 | 340 | 2.0 | 5.0 | 0.00 | 0.00 | 0.00 | 43 | 1005.8 |
| 20260503212441 | 67 | 316 | 5.0 | 10.0 | 0.00 | 0.00 | 0.00 | 43 | 1005.8 |
| 20260503211938 | 68 | 80 | 4.0 | 18.0 | 0.00 | 0.00 | 0.00 | 44 | 1005.9 |
| 20260503211435 | 69 | 187 | 5.0 | 8.0 | 0.00 | 0.00 | 0.00 | 40 | 1005.9 |
| 20260503210930 | 69 | 255 | 3.0 | 12.0 | 0.00 | 0.00 | 0.00 | 41 | 1006.1 |
| 20260503210427 | 69 | 30 | 4.0 | 12.0 | 0.00 | 0.00 | 0.00 | 40 | 1006.1 |
| 20260503205922 | 69 | 181 | 2.0 | 13.0 | 0.00 | 0.00 | 0.00 | 41 | 1006.4 |
| 20260503205420 | 68 | 310 | 3.0 | 10.0 | 0.00 | 0.00 | 0.00 | 43 | 1006.3 |
| 20260503204915 | 68 | 204 | 4.0 | 10.0 | 0.00 | 0.00 | 0.00 | 42 | 1006.2 |
| 20260503204413 | 67 | 205 | 6.0 | 15.0 | 0.00 | 0.00 | 0.00 | 42 | 1006.5 |
| 20260503203910 | 67 | 266 | 9.0 | 13.0 | 0.00 | 0.00 | 0.00 | 44 | 1006.7 |
| 20260503203407 | 67 | 253 | 6.0 | 13.0 | 0.00 | 0.00 | 0.00 | 45 | 1007.0 |
| 20260503202904 | 67 | 273 | 3.0 | 12.0 | 0.00 | 0.00 | 0.00 | 46 | 1007.1 |
| 20260503202402 | 67 | 271 | 7.0 | 8.0 | 0.00 | 0.00 | 0.00 | 46 | 1007.1 |
| 20260503201900 | 67 | 296 | 10.0 | 17.0 | 0.00 | 0.00 | 0.00 | 46 | 1007.2 |
| 20260503201357 | 67 | 262 | 8.0 | 13.0 | 0.00 | 0.00 | 0.00 | 45 | 1007.4 |
| 20260503200855 | 65 | 301 | 4.0 | 10.0 | 0.00 | 0.00 | 0.00 | 48 | 1007.3 |
| 20260503200350 | 65 | 230 | 9.0 | 15.0 | 0.00 | 0.00 | 0.00 | 49 | 1007.7 |
| 20260503195848 | 65 | 183 | 3.0 | 10.0 | 0.00 | 0.00 | 0.00 | 51 | 1007.7 |
| 20260503195344 | 66 | 318 | 4.0 | 15.0 | 0.00 | 0.00 | 0.00 | 47 | 1007.8 |
| 20260503194841 | 67 | 227 | 5.0 | 13.0 | 0.00 | 0.00 | 0.00 | 48 | 1007.8 |
| 20260503194337 | 66 | 274 | 3.0 | 13.0 | 0.00 | 0.00 | 0.00 | 51 | 1007.6 |
| 20260503193834 | 65 | 310 | 5.0 | 8.0 | 0.00 | 0.00 | 0.00 | 51 | 1008.0 |
| 20260503193330 | 63 | 213 | 3.0 | 15.0 | 0.00 | 0.00 | 0.00 | 51 | 1007.8 |
| 20260503192826 | 64 | 251 | 3.0 | 12.0 | 0.00 | 0.00 | 0.00 | 51 | 1007.9 |
| 20260503192321 | 64 | 293 | 4.0 | 12.0 | 0.00 | 0.00 | 0.00 | 50 | 1008.0 |
| 20260503191818 | 64 | 312 | 4.0 | 10.0 | 0.00 | 0.00 | 0.00 | 49 | 1008.2 |
| 20260503191315 | 65 | 229 | 3.0 | 12.0 | 0.00 | 0.00 | 0.00 | 52 | 1008.1 |
| 20260503190812 | 63 | 188 | 5.0 | 8.0 | 0.00 | 0.00 | 0.00 | 51 | 1008.3 |
| 20260503190309 | 63 | 125 | 7.0 | 17.0 | 0.00 | 0.00 | 0.00 | 51 | 1008.3 |
| 20260503185806 | 62 | 66 | 5.0 | 8.0 | 0.00 | 0.00 | 0.00 | 54 | 1008.4 |
| 20260503185301 | 61 | 186 | 4.0 | 10.0 | 0.00 | 0.00 | 0.00 | 55 | 1008.2 |
| 20260503184801 | 61 | 251 | 4.0 | 13.0 | 0.00 | 0.00 | 0.00 | 55 | 1008.4 |
| 20260503184258 | 60 | 93 | 3.0 | 12.0 | 0.00 | 0.00 | 0.00 | 56 | 1008.3 |
| 20260503183754 | 62 | 301 | 3.0 | 10.0 | 0.00 | 0.00 | 0.00 | 53 | 1008.9 |
| 20260503183252 | 62 | 306 | 5.0 | 8.0 | 0.00 | 0.00 | 0.00 | 55 | 1008.4 |
| 20260503182749 | 60 | 350 | 11.0 | 25.0 | 0.00 | 0.00 | 0.00 | 57 | 1008.5 |
| 20260503182248 | 60 | 303 | 3.0 | 12.0 | 0.00 | 0.00 | 0.00 | 56 | 1008.9 |
| 20260503181744 | 60 | 244 | 4.0 | 8.0 | 0.00 | 0.00 | 0.00 | 58 | 1009.1 |
| 20260503181241 | 59 | 342 | 6.0 | 13.0 | 0.00 | 0.00 | 0.00 | 57 | 1009.1 |
| 20260503180737 | 59 | 269 | 4.0 | 10.0 | 0.00 | 0.00 | 0.00 | 58 | 1009.4 |
| 20260503180236 | 59 | 310 | 6.0 | 15.0 | 0.00 | 0.00 | 0.00 | 59 | 1009.5 |
| 20260503175732 | 58 | 315 | 6.0 | 17.0 | 0.00 | 0.00 | 0.00 | 60 | 1009.6 |
| 20260503175230 | 60 | 244 | 7.0 | 17.0 | 0.00 | 0.00 | 0.00 | 56 | 1009.8 |
| 20260503174726 | 60 | 293 | 6.0 | 10.0 | 0.00 | 0.00 | 0.00 | 60 | 1010.0 |
| 20260503174224 | 59 | 200 | 2.0 | 10.0 | 0.00 | 0.00 | 0.00 | 61 | 1010.0 |
| 20260503173724 | 58 | 290 | 6.0 | 15.0 | 0.00 | 0.00 | 0.00 | 61 | 1010.0 |
| 20260503173221 | 58 | 321 | 7.0 | 13.0 | 0.00 | 0.00 | 0.00 | 61 | 1010.5 |
| 20260503172718 | 57 | 317 | 6.0 | 12.0 | 0.00 | 0.00 | 0.00 | 65 | 1010.8 |
| 20260503172215 | 57 | 176 | 6.0 | 17.0 | 0.00 | 0.00 | 0.00 | 63 | 1010.9 |
| 20260503171711 | 55 | 201 | 2.0 | 8.0 | 0.00 | 0.00 | 0.00 | 66 | 1011.0 |
| 20260503171208 | 55 | 143 | 6.0 | 13.0 | 0.00 | 0.00 | 0.00 | 67 | 1010.9 |
| 20260503170705 | 53 | 8 | 3.0 | 12.0 | 0.00 | 0.00 | 0.00 | 69 | 1010.9 |
| 20260503170202 | 53 | 274 | 4.0 | 12.0 | 0.00 | 0.00 | 0.00 | 71 | 1011.1 |
| 20260503160124 | 55 | 317 | 12.0 | 20.0 | 0.00 | 0.00 | 0.00 | 64 | 1012.2 |
| 20260503150554 | 56 | 292 | 5.0 | 10.0 | 0.00 | 0.00 | 0.00 | 59 | 1012.1 |
| 20260503130943 | 53 | 19 | 3.0 | 10.0 | 0.00 | 0.00 | 0.00 | 56 | 1013.2 |
| 20260503130441 | 53 | 359 | 5.0 | 15.0 | 0.00 | 0.00 | 0.00 | 55 | 1013.3 |
| 20260503110331 | 49 | 170 | 2.0 | 7.0 | 0.00 | 0.00 | 0.00 | 59 | 1013.0 |
| 20260503100258 | 48 | 280 | 1.0 | 5.0 | 0.00 | 0.00 | 0.00 | 58 | 1013.1 |
| 20260503090217 | 48 | 233 | 2.0 | 5.0 | 0.00 | 0.00 | 0.00 | 55 | 1013.6 |
| 20260503081144 | 47 | 329 | 3.0 | 5.0 | 0.00 | 0.00 | 0.00 | 56 | 1013.7 |
| 20260503080640 | 47 | 256 | 1.0 | 3.0 | 0.00 | 0.00 | 0.00 | 58 | 1013.5 |
| 20260503080137 | 47 | 19 | 2.0 | 5.0 | 0.00 | 0.00 | 0.00 | 57 | 1013.9 |
| 20260503072614 | 47 | 264 | 2.0 | 7.0 | 0.00 | 0.00 | 0.00 | 59 | 1013.8 |
| 20260503072111 | 47 | 342 | 2.0 | 5.0 | 0.00 | 0.00 | 0.00 | 57 | 1013.7 |
| 20260503071608 | 47 | 152 | 2.0 | 3.0 | 0.00 | 0.00 | 0.00 | 57 | 1013.8 |
| 20260503071104 | 47 | 36 | 0.0 | 3.0 | 0.00 | 0.00 | 0.00 | 56 | 1013.9 |
| 20260503070601 | 47 | 34 | 1.0 | 5.0 | 0.00 | 0.00 | 0.00 | 56 | 1014.0 |
| 20260503055020 | 47 | 35 | 0.0 | 2.0 | 0.00 | 0.00 | 0.00 | 58 | 1014.5 |
| 20260503054516 | 47 | 310 | 1.0 | 3.0 | 0.00 | 0.00 | 0.00 | 59 | 1014.7 |
| 20260503054014 | 47 | 30 | 0.0 | 2.0 | 0.00 | 0.00 | 0.00 | 60 | 1014.6 |
| 20260503053511 | 46 | 202 | 3.0 | 3.0 | 0.00 | 0.00 | 0.00 | 60 | 1014.7 |
| 20260503053009 | 46 | 325 | 0.0 | 2.0 | 0.00 | 0.00 | 0.00 | 60 | 1014.7 |
| 20260503052506 | 47 | 202 | 2.0 | 3.0 | 0.00 | 0.00 | 0.00 | 60 | 1014.6 |
| 20260503052001 | 47 | 14 | 0.0 | 2.0 | 0.00 | 0.00 | 0.00 | 60 | 1014.8 |
| 20260503051457 | 47 | 289 | 0.0 | 2.0 | 0.00 | 0.00 | 0.00 | 59 | 1014.8 |
| 20260503050955 | 47 | 159 | 0.0 | 2.0 | 0.00 | 0.00 | 0.00 | 59 | 1014.9 |
| 20260503050450 | 47 | 359 | 1.0 | 3.0 | 0.00 | 0.00 | 0.00 | 60 | 1015.0 |
| 20260503045948 | 47 | 336 | 0.0 | 3.0 | 0.00 | 0.00 | 0.00 | 61 | 1014.9 |
| 20260503045446 | 47 | 300 | 0.0 | 2.0 | 0.00 | 0.00 | 0.00 | 62 | 1014.9 |
| 20260503044943 | 47 | 319 | 0.0 | 5.0 | 0.00 | 0.00 | 0.00 | 61 | 1015.1 |
| 20260503044439 | 46 | 83 | 0.0 | 2.0 | 0.00 | 0.00 | 0.00 | 61 | 1014.8 |
| 20260503043937 | 46 | 158 | 0.0 | 3.0 | 0.00 | 0.00 | 0.00 | 63 | 1014.9 |
| 20260503043433 | 46 | 332 | 0.0 | 0.0 | 0.00 | 0.00 | 0.00 | 63 | 1014.8 |
| 20260503042929 | 46 | 279 | 0.0 | 0.0 | 0.00 | 0.00 | 0.00 | 63 | 1014.8 |
| 20260503042426 | 46 | 113 | 0.0 | 2.0 | 0.00 | 0.00 | 0.00 | 62 | 1014.8 |
| 20260503041923 | 46 | 310 | 1.0 | 2.0 | 0.00 | 0.00 | 0.00 | 64 | 1015.0 |
| 20260503041420 | 46 | 23 | 0.0 | 2.0 | 0.00 | 0.00 | 0.00 | 65 | 1015.0 |
| 20260503040917 | 45 | 67 | 1.0 | 3.0 | 0.00 | 0.00 | 0.00 | 64 | 1015.0 |
| 20260503040414 | 46 | 341 | 0.0 | 0.0 | 0.00 | 0.00 | 0.00 | 64 | 1014.9 |
| 20260503035912 | 46 | 330 | 0.0 | 0.0 | 0.00 | 0.00 | 0.00 | 64 | 1014.9 |